Regional Weather Roundup
Issued by NWS

Home | Current Version | Previous Version | Graphics & Text | Print | Product List | Glossary On
Versions: 1 2 3 4 5 6 7 8 9 10 11 12 13 14 15 16 17 18 19 20 21 22 23 24 25 26 27 28
000
ASUS45 KTFX 260310
RWRMT
MONTANA REGIONAL WEATHER ROUNDUP
NATIONAL WEATHER SERVICE GREAT FALLS MT
900 PM MDT TUE JUL 25 2017

NOTE: "FAIR" INDICATES FEW OR NO CLOUDS BELOW 12000 FEET WITH NO
SIGNIFICANT WEATHER AND/OR OBSTRUCTIONS TO VISIBILITY.

MTZ001>007-043-260400-
WEST OF THE DIVIDE

CITY           SKY/WX    TMP DP  RH WIND       PRES   REMARKS
KALISPELL      CLEAR     76  45  33 SW3       29.97S
MISSOULA       CLEAR     79  33  19 N7        29.98R
BUTTE          CLOUDY    76  47  35 S3        30.12R
MULLAN PASS    CLEAR     67  33  28 NW7       30.19S
ANACONDA         N/A     73  37  27 CALM      30.08R
DEER LODGE       N/A     72  37  28 W6        30.08R
EUREKA           N/A     82  30  15 MISG      29.97R
HAMILTON         N/A     81  48  32 CALM      30.00R
LIBBY            N/A     84  32  15 NW5       29.96R
$$

MTZ008-052>055-260400-
SOUTHWEST MONTANA

CITY           SKY/WX    TMP DP  RH WIND       PRES   REMARKS
BOZEMAN        CLEAR     72  48  42 SE12      30.06S
DILLON         CLOUDY    68  51  54 S13       30.11R
W YELLOWSTONE  CLOUDY    63  50  63 SE6       30.27F
ENNIS          CLEAR     70  46  43 S16G22    30.18S
THREE FORKS      N/A     73  53  49 CALM      30.05R
TWIN BRIDGES     N/A     69  53  56 CALM      30.08R
$$

MTZ009-010-012-014-046-048-049-054-260400-
EAST SLOPES AND CENTRAL MONTANA

CITY           SKY/WX    TMP DP  RH WIND       PRES   REMARKS
CUT BANK       CLEAR     73  36  25 E7        30.09R
GREAT FALLS    CLEAR     76  38  25 NE14      30.04R
HELENA         CLEAR     80  49  33 CALM      30.00S
CHOTEAU          N/A     70  36  28 NE8       30.10R
$$

MTZ011-013-016-021-045-047-050-051-260400-
NORTH CENTRAL MONTANA

CITY           SKY/WX    TMP DP  RH WIND       PRES   REMARKS
HAVRE          CLEAR     77  39  25 NE7       30.04R
LEWISTOWN      CLEAR     72  40  31 E12       30.10R
N BAR RANCH      N/A     64  39  39 S7        30.17S
CHINOOK          N/A     77  46  33 CALM      30.04R
$$

MTZ017>020-022>027-061-062-260400-
NORTHEAST MONTANA

CITY           SKY/WX    TMP DP  RH WIND       PRES   REMARKS
GLASGOW        MOCLDY    77  44  30 NW3       30.05S
JORDAN           N/A     78  39  24 NE9       30.06R
SIDNEY         PTCLDY    78  45  30 N8        30.03R
WOLF POINT     PTCLDY    79  44  28 SW5       30.04R
MALTA          CLEAR     73  48  40 E3        30.04S
PLENTYWOOD       N/A     72  45  37 CALM      30.06R
POPLAR           N/A     75  43  31 NE5       30.04S
SCOBEY           N/A     70  41  34 N1        30.07R
$$

MTZ028>42-056>058-260400-
SOUTHCENTRAL AND SOUTHEAST MONTANA

CITY           SKY/WX    TMP DP  RH WIND       PRES   REMARKS
BAKER          CLOUDY    76  41  28 NE3       30.08R
BILLINGS       PTCLDY    71  44  37 N5        30.09R
LIVINGSTON     CLEAR     61  44  53 S3        30.12S
MILES CITY     MOCLDY    79  39  23 NE6       30.05R
BIG TIMBER     CLEAR     64  45  48 E7        30.15R
EKALAKA          N/A     71  46  40 SE3       30.08S
FORSYTH          N/A     79  41  25 CALM      30.05S
LAUREL           N/A     68  42  38 NW1       30.08F
ROUNDUP          N/A     74  41  30 SE2       30.01S
$$

REGIONAL REPORTS...DAKOTAS

CITY           SKY/WX    TMP DP  RH WIND       PRES   REMARKS
WILLISTON      CLEAR     76  43  30 N9        30.03S
MINOT          CLEAR     69  54  58 NW7       30.00R
DICKINSON      CLOUDY    76  47  35 N6        30.03S
BEACH            N/A     73  50  43 CALM      30.10R
CROSBY           N/A     66  52  59 N5        30.05R
TIOGA            N/A     70  48  46 N7        30.06S
WATFORD CITY     N/A     72  45  37 N6        30.03R
BISMARCK       CLOUDY    78  53  41 N5        29.99R
GRAND FORKS    MOCLDY    69  60  73 NW5       29.94R
FARGO          CLOUDY    74  70  87 N7        29.95R
BUFFALO SD       N/A     75  53  46 NW5       30.02R
RAPID CITY     CLOUDY    75  55  49 N16       30.08R
$$

REGIONAL REPORTS...WYOMING/IDAHO/WASHINGTON

CITY           SKY/WX    TMP DP  RH WIND       PRES   REMARKS
GILLETTE       CLOUDY    64  62  93 CALM      30.18S
SHERIDAN       CLOUDY    63  59  87 S5        30.13F
BUFFALO WY     CLOUDY    63  57  81 S5        30.21F
CODY           CLOUDY    62  52  69 SE6       30.22S
YELLOWSTONE LA   N/A     51  51 100 CALM      30.38F
IDAHO FALLS    CLOUDY    68  62  81 N3        30.11R
BOISE          MOCLDY    88  48  25 NW8       29.92S
SPOKANE        PTCLDY    86  29  12 W6        29.97S
$$

REGIONAL REPORTS...ALBERTA

CITY           SKY/WX    TMP DP  RH WIND       PRES   REMARKS
EDMONTON       CLEAR     68  55  64 CALM      30.02S
CALGARY        PTCLDY    68  45  42 E7        30.10R
LETHBRIDGE     PTCLDY    68  46  45 E8        30.07R
MEDICINE HAT   CLEAR     75  41  29 NW3       30.05R
WATERTON GATE    N/A     64  43  45 N2          N/A
CARDSTON         N/A     70  43  37 NE5         N/A
MILK RIVER       N/A     68  43  40 E10         N/A
$$

REGIONAL REPORTS...SASKATCHEWAN

CITY           SKY/WX    TMP DP  RH WIND       PRES   REMARKS
SWIFT CURRENT  CLEAR     68  46  45 NE3       30.08S
REGINA         PTCLDY    66  52  59 NW6       30.04R
SASKATOON      PTCLDY    64  55  72 NW5       30.05R
CYPRESS HILLS    N/A     63  39  42 NW2         N/A
VAL MARIE        N/A     64  41  42 NE7         N/A
ROCKGLEN         N/A     64  41  42 N5          N/A
ASSINIBOIA       N/A     70  57  64 CALM        N/A
$$




USA.gov is the U.S. government's official web portal to all federal, state and local government web resources and services.